When you browse on this site, cookies collect data to enhance your experience and personalize the content and advertising you see.
Visit our Privacy Policy to learn more. By continuing to use the site, you agree to this use of cookies and data.
  • In Austria
  • List of Countries
  • For 7 days
  • Water Temperature
  • Weather Map
  • News
  • Weather Widgets
  • user-avatar
    Login

    Hourly Weather Rosas

    Today, 19 January, Sunday

    Time Temperature Precipitation Wind Pressure Humidity
    00:00 +19°C° 0 mm 1 mps 617 mmHg 86%
    01:00 +19°C° 0 mm 1 mps 617 mmHg 89%
    02:00 +19°C° 0.1 mm 1 mps 616 mmHg 89%
    03:00 +19°C° 0.1 mm 1 mps 616 mmHg 89%
    04:00 +19°C° 0.1 mm 1 mps 616 mmHg 88%
    05:00 +19°C° 0 mm 1 mps 616 mmHg 88%
    06:00 +19°C° 0 mm 1 mps 616 mmHg 87%
    07:00 +20°C° 0 mm 1 mps 617 mmHg 85%
    08:00 +21°C° 0.1 mm 1 mps 618 mmHg 79%
    09:00 +23°C° 0.1 mm 1 mps 619 mmHg 73%
    10:00 +25°C° 0.1 mm 1 mps 620 mmHg 67%
    11:00 +26°C° 0.2 mm 1 mps 620 mmHg 64%
    12:00 +26°C° 0.2 mm 2 mps 619 mmHg 61%
    13:00 +27°C° 0.2 mm 2 mps 619 mmHg 58%
    14:00 +26°C° 0.7 mm 2 mps 618 mmHg 63%
    15:00 +25°C° 0.7 mm 1 mps 618 mmHg 68%
    16:00 +25°C° 0.7 mm 1 mps 617 mmHg 73%
    17:00 +23°C° 1.1 mm 1 mps 617 mmHg 79%
    18:00 +21°C° 1.1 mm 1 mps 617 mmHg 86%
    19:00 +20°C° 1.1 mm 1 mps 617 mmHg 92%
    20:00 +19°C° 0.7 mm 1 mps 617 mmHg 92%
    21:00 +19°C° 0.7 mm 1 mps 618 mmHg 92%
    22:00 +19°C° 0.7 mm 1 mps 618 mmHg 92%
    23:00 +19°C° 0.5 mm 1 mps 618 mmHg 92%

    Tomorrow, 20 January, Monday

    Time Temperature Precipitation Wind Pressure Humidity
    00:00 +18°C° 0.5 mm 1 mps 617 mmHg 92%
    01:00 +18°C° 0.5 mm 1 mps 617 mmHg 92%
    02:00 +18°C° 0.1 mm 1 mps 617 mmHg 92%
    03:00 +18°C° 0.1 mm 1 mps 616 mmHg 91%
    04:00 +16°C° 0.1 mm 0 mps 616 mmHg 91%
    05:00 +16°C° 0 mm 0 mps 617 mmHg 91%
    06:00 +16°C° 0 mm 0 mps 617 mmHg 91%
    07:00 +16°C° 0 mm 0 mps 617 mmHg 91%
    08:00 +20°C° 0.1 mm 1 mps 618 mmHg 86%
    09:00 +22°C° 0.1 mm 1 mps 619 mmHg 80%
    10:00 +24°C° 0.1 mm 1 mps 620 mmHg 75%
    11:00 +24°C° 1.4 mm 1 mps 620 mmHg 78%
    12:00 +24°C° 1.4 mm 1 mps 619 mmHg 80%
    13:00 +24°C° 1.4 mm 1 mps 619 mmHg 82%
    14:00 +23°C° 2.4 mm 1 mps 618 mmHg 85%
    15:00 +23°C° 2.4 mm 1 mps 617 mmHg 87%
    16:00 +20°C° 2.4 mm 0 mps 617 mmHg 90%
    17:00 +19°C° 2 mm 0 mps 617 mmHg 92%
    18:00 +18°C° 2 mm 0 mps 617 mmHg 94%
    19:00 +17°C° 2 mm 0 mps 616 mmHg 96%
    20:00 +17°C° 1.3 mm 0 mps 617 mmHg 96%
    21:00 +17°C° 1.3 mm 0 mps 617 mmHg 96%
    22:00 +17°C° 1.3 mm 0 mps 618 mmHg 96%
    23:00 +17°C° 1.5 mm 0 mps 618 mmHg 97%

    Day after tomorrow, 21 January, Tuesday

    Time Temperature Precipitation Wind Pressure Humidity
    00:00 +17°C° 1.5 mm 0 mps 618 mmHg 98%
    01:00 +16°C° 1.5 mm 0 mps 617 mmHg 98%
    02:00 +16°C° 1.6 mm 0 mps 617 mmHg 98%
    03:00 +16°C° 1.6 mm 0 mps 617 mmHg 99%
    04:00 +16°C° 1.6 mm 0 mps 616 mmHg 99%
    05:00 +16°C° 1.6 mm 0 mps 617 mmHg 99%
    06:00 +16°C° 1.6 mm 0 mps 617 mmHg 99%
    07:00 +15°C° 1.6 mm 0 mps 617 mmHg 99%
    08:00 +16°C° 0.6 mm 0 mps 618 mmHg 98%
    09:00 +16°C° 0.6 mm 0 mps 618 mmHg 97%
    10:00 +17°C° 0.6 mm 0 mps 619 mmHg 96%
    11:00 +17°C° 0.4 mm 0 mps 618 mmHg 95%
    12:00 +17°C° 0.4 mm 0 mps 618 mmHg 95%
    13:00 +17°C° 0.4 mm 0 mps 617 mmHg 94%
    14:00 +17°C° 0.8 mm 0 mps 617 mmHg 95%
    15:00 +19°C° 0.8 mm 1 mps 616 mmHg 96%
    16:00 +18°C° 0.8 mm 1 mps 616 mmHg 97%
    17:00 +16°C° 0.4 mm 0 mps 616 mmHg 97%
    18:00 +16°C° 0.4 mm 0 mps 616 mmHg 97%
    19:00 +15°C° 0.4 mm 0 mps 616 mmHg 97%
    20:00 +15°C° 0.1 mm 0 mps 616 mmHg 97%
    21:00 +15°C° 0.1 mm 0 mps 617 mmHg 96%
    22:00 +15°C° 0.1 mm 0 mps 618 mmHg 96%
    23:00 +15°C° 0 mm 0 mps 617 mmHg 96%

    22 January, Wednesday

    Time Temperature Precipitation Wind Pressure Humidity
    00:00 +15°C° 0 mm 0 mps 617 mmHg 96%
    01:00 +15°C° 0 mm 0 mps 617 mmHg 97%
    02:00 +15°C° 0 mm 0 mps 616 mmHg 96%
    03:00 +15°C° 0 mm 0 mps 616 mmHg 96%
    04:00 +15°C° 0 mm 0 mps 616 mmHg 96%
    05:00 +15°C° 0.1 mm 0 mps 616 mmHg 96%
    06:00 +15°C° 0.1 mm 0 mps 617 mmHg 95%
    07:00 +15°C° 0.1 mm 0 mps 617 mmHg 95%
    08:00 +16°C° 0.1 mm 0 mps 618 mmHg 93%
    09:00 +16°C° 0.1 mm 0 mps 618 mmHg 92%
    10:00 +17°C° 0.1 mm 0 mps 619 mmHg 90%
    11:00 +20°C° 0.2 mm 1 mps 619 mmHg 86%
    12:00 +21°C° 0.2 mm 1 mps 618 mmHg 83%
    13:00 +22°C° 0.2 mm 1 mps 618 mmHg 79%
    14:00 +21°C° 0.3 mm 1 mps 617 mmHg 81%
    15:00 +21°C° 0.3 mm 1 mps 617 mmHg 82%
    16:00 +19°C° 0.3 mm 0 mps 616 mmHg 84%
    17:00 +18°C° 0.1 mm 0 mps 616 mmHg 88%
    18:00 +17°C° 0.1 mm 0 mps 616 mmHg 91%
    19:00 +16°C° 0.1 mm 0 mps 616 mmHg 95%
    20:00 +16°C° 0 mm 0 mps 616 mmHg 94%
    21:00 +15°C° 0 mm 0 mps 617 mmHg 94%
    22:00 +15°C° 0 mm 0 mps 617 mmHg 93%
    23:00 +15°C° 0.1 mm 0 mps 617 mmHg 93%

    23 January, Thursday

    Time Temperature Precipitation Wind Pressure Humidity
    00:00 +15°C° 0.1 mm 0 mps 616 mmHg 93%
    01:00 +15°C° 0.1 mm 0 mps 616 mmHg 93%
    02:00 +15°C° 0 mm 0 mps 616 mmHg 93%
    03:00 +15°C° 0 mm 0 mps 616 mmHg 92%
    04:00 +15°C° 0 mm 0 mps 615 mmHg 92%
    05:00 +15°C° 0.3 mm 0 mps 616 mmHg 93%
    06:00 +15°C° 0.3 mm 0 mps 616 mmHg 93%
    07:00 +15°C° 0.3 mm 0 mps 617 mmHg 94%
    08:00 +18°C° 0.1 mm 1 mps 617 mmHg 88%
    09:00 +20°C° 0.1 mm 1 mps 618 mmHg 83%
    10:00 +21°C° 0.1 mm 1 mps 619 mmHg 77%
    11:00 +22°C° 0.4 mm 1 mps 619 mmHg 77%
    12:00 +23°C° 0.4 mm 1 mps 618 mmHg 76%
    13:00 +24°C° 0.4 mm 2 mps 618 mmHg 75%
    14:00 +23°C° 1.3 mm 1 mps 617 mmHg 80%
    15:00 +22°C° 1.3 mm 1 mps 616 mmHg 84%
    16:00 +22°C° 1.3 mm 1 mps 615 mmHg 89%
    17:00 +21°C° 0.9 mm 1 mps 616 mmHg 91%
    18:00 +18°C° 0.9 mm 0 mps 616 mmHg 94%
    19:00 +16°C° 0.9 mm 0 mps 616 mmHg 97%
    20:00 +16°C° 0.3 mm 0 mps 616 mmHg 96%
    21:00 +16°C° 0.3 mm 0 mps 617 mmHg 96%
    22:00 +16°C° 0.3 mm 0 mps 617 mmHg 96%
    23:00 +16°C° 0.3 mm 0 mps 617 mmHg 96%

    24 January, Friday

    Time Temperature Precipitation Wind Pressure Humidity
    00:00 +16°C° 0.3 mm 0 mps 617 mmHg 96%
    01:00 +16°C° 0.3 mm 0 mps 617 mmHg 96%
    02:00 +16°C° 0.9 mm 0 mps 616 mmHg 97%
    03:00 +16°C° 0.9 mm 0 mps 616 mmHg 97%
    04:00 +16°C° 0.9 mm 0 mps 616 mmHg 98%
    05:00 +16°C° 0.9 mm 0 mps 616 mmHg 98%
    06:00 +16°C° 0.9 mm 0 mps 617 mmHg 97%
    07:00 +16°C° 0.9 mm 0 mps 617 mmHg 97%
    08:00 +16°C° 0.6 mm 0 mps 617 mmHg 97%
    09:00 +16°C° 0.6 mm 0 mps 618 mmHg 96%
    10:00 +17°C° 0.6 mm 0 mps 618 mmHg 95%
    11:00 +18°C° 0.2 mm 0 mps 618 mmHg 90%
    12:00 +21°C° 0.2 mm 1 mps 618 mmHg 85%
    13:00 +23°C° 0.2 mm 1 mps 618 mmHg 79%
    14:00 +22°C° 0.8 mm 1 mps 617 mmHg 82%
    15:00 +22°C° 0.8 mm 1 mps 617 mmHg 85%
    16:00 +22°C° 0.8 mm 1 mps 616 mmHg 88%
    17:00 +21°C° 0.7 mm 1 mps 616 mmHg 91%
    18:00 +20°C° 0.7 mm 1 mps 616 mmHg 94%
    19:00 +17°C° 0.7 mm 0 mps 616 mmHg 96%
    20:00 +16°C° 0.3 mm 0 mps 617 mmHg 96%
    21:00 +16°C° 0.3 mm 0 mps 617 mmHg 96%
    22:00 +16°C° 0.3 mm 0 mps 618 mmHg 96%
    23:00 +16°C° 0.4 mm 0 mps 617 mmHg 96%
    Show more